Other Surface Observations
Issued by NWS

Current Version | Previous Version | Text Only | Print | Product List | Glossary On
Versions: 1 2 3 4 5 6 7 8 9 10 11 12 13 14 15 16 17 18 19 20 21 22 23 24 25 26 27 28 29 30 31 32 33 34 35 36 37 38 39 40 41 42 43 44 45 46 47 48 49 50
984
SXUS52 KTAE 220418
OSOTAE
OSOTAE
North Florida/South Alabama/Southwest Georgia Weather Roundup
National Weather Service Tallahassee Florida
1100 PM EST TUE FEB 21 2017

Note: "fair" indicates few or no clouds below 12,000 feet with no
significant weather and/or obstructions to visibility.

!FLZ017-115-028-034-025-220500
...North Florida...

CITY           SKY/WX    TMP DP  RH WIND       PRES   REMARKS
TALLAHASSEE    CLOUDY    63  60  90 NW3       29.90F
APALACHICOLA   RAIN      61  61 100 E7        29.89F
PERRY          CLOUDY    65  60  83 CALM      29.91R
CROSS CITY     MOCLDY    63  59  88 CALM      29.90S
JACKSONVILLE   MOCLDY    68  62  81 SE10      29.94F
$$

!FLZ112-006-005-002-011-220500
...Florida Panhandle...

CITY           SKY/WX    TMP DP  RH WIND       PRES   REMARKS
MARIANNA       RAIN      61  61 100 SE6       29.89F
BONIFAY        LGT RAIN  61  61 100 E7        29.89S FOG
PANAMA CITY NW LGT RAIN  60  59  96 E8        29.86F
TYNDALL AFB    LGT RAIN  61  60  97 E8        29.87F
TYND DRONE APT RAIN      61  61 100 E12       29.87F
DE FUNIAK SPR  DRIZZLE   58  58 100 E12       29.85F
EGLIN AFB      CLOUDY    60  59  96 E6        29.85R
DESTIN         CLOUDY    63  63 100 E7        29.83F
HURLBURT       CLOUDY    61  58  92 NE7       29.83F
CRESTVIEW      CLOUDY    59  58  96 SE6       29.87R
PENSACOLA      LGT RAIN  61  58  90 CALM      29.85S
$$

!ALZ063-066-220500
...South Alabama...

CITY           SKY/WX    TMP DP  RH WIND       PRES   REMARKS
DOTHAN         LGT RAIN  59  59 100 E7        29.91F
OZARK CAIRNS   LGT RAIN  59  59 100 E6        29.87F
FT RUCKER HELI LGT RAIN  59  59  98 NE3       29.87S
RUCKER HELI 3  NOT AVBL
RUCKER HELI 2  LGT RAIN  59  59 100 E6        29.86F FOG
FLORALA APT    LGT RAIN  60  57  89 E8        29.85F
ANDALUSIA      LGT RAIN  61  58  90 E12       29.83F
TROY           LGT RAIN  58  58 100 E5        29.87F
EUFALA         LGT RAIN  61  59  93 CALM      29.88F FOG
MOBILE         MOCLDY    60  58  92 CALM      29.86S
$$

!GAZ120>161-220500
...Southwest and South Central Georgia...

CITY           SKY/WX    TMP DP  RH WIND       PRES   REMARKS
THOMASVILLE    CLOUDY    64  63  94 CALM      29.92S
BAINBRIDGE     CLOUDY    61  59  94 W5        29.90F
MOODY AFB      MOCLDY    66  58  75 E7        29.90F
VALDOSTA       CLOUDY    66  58  75 SE6       29.91F
MOULTRIE       CLOUDY    64  61  88 CALM      29.91F
BLAKELY        LGT RAIN  63  61  94 CALM      29.90S
ALBANY         CLOUDY    66  63  90 S6        29.91F
TIFTON         FAIR      66  59  78 SE6       29.91F
FITZGERALD     CLOUDY    67  61  79 SE6       29.94F
CORDELE        CLOUDY    69  60  72 SE9       29.92F
AMERICUS       CLOUDY    61  61 100 CALM      29.93F
HOMERVILLE     FAIR      64  61  88 E7        29.93F
$$

!GMZ750-755-770-775-220500
...Coastal and Buoy Obs...

STATION/POSITION TIME  TEMP    WIND        PRES    VSBY  WAVE
                       AIR SEA DIR/SP/G                  HT/PER
                 (UTC) (F)     (DEG/KT/KT) (MB)    (MI)  (FT/S)
KEATON BEACH     0400   65      30/  3/  3 1012.1F
CEDAR KEY        0400   68     120/  9/ 10 1012.5F
C TOWER          0400   61      20/  8/  9 1012.9F
APALACHICOLA BUO 0350   67 69  170/  8/ 10 1011.9F         5/ 6
PANAMA CITY BUOY 0350   66 70              1009.8F         5/ 7
MOBILE BUOY      NOT AVBL
ORANGE BCH AL BU 0350   65 68   70/ 14/ 16 1010.1F         3/ 6
$$




USA.gov is the U.S. government's official web portal to all federal, state and local government web resources and services.